| time (UTC) | temp F | wind direction | speed MPH | gust MPH | rain 1hr in | rain 24hr in | rain mn in | humidity % | barometer mb |
| 20260502123155 | 51 | 239 | 0.0 | 0.0 | 0.00 | 0.15 | 0.00 | 97 | 1019.4 |
| 20260502122132 | 51 | 239 | 0.0 | 0.0 | 0.00 | 0.15 | 0.00 | 97 | 1019.4 |
| 20260502121153 | 50 | 239 | 0.0 | 0.0 | 0.00 | 0.15 | 0.00 | 97 | 1019.2 |
| 20260502120159 | 50 | 239 | 0.0 | 0.0 | 0.00 | 0.15 | 0.00 | 97 | 1019.0 |
| 20260502115221 | 50 | 239 | 0.0 | 0.0 | 0.00 | 0.18 | 0.00 | 96 | 1018.8 |
| 20260502114206 | 50 | 239 | 0.0 | 0.0 | 0.00 | 0.18 | 0.00 | 96 | 1018.7 |
| 20260502113136 | 51 | 239 | 0.0 | 0.0 | 0.00 | 0.18 | 0.00 | 96 | 1018.5 |
| 20260502112214 | 51 | 35 | 0.0 | 0.0 | 0.00 | 0.18 | 0.00 | 96 | 1018.4 |
| 20260502111130 | 51 | 35 | 0.0 | 1.0 | 0.00 | 0.18 | 0.00 | 96 | 1018.3 |
| 20260502110847 | 51 | 35 | 0.0 | 1.0 | 0.00 | 0.18 | 0.00 | 96 | 1018.2 |
| 20260502110150 | 51 | 35 | 0.0 | 0.0 | 0.00 | 0.18 | 0.00 | 96 | 1018.2 |
| 20260502105211 | 51 | 35 | 0.0 | 0.0 | 0.00 | 0.19 | 0.00 | 96 | 1018.2 |
| 20260502103154 | 51 | 35 | 0.0 | 0.0 | 0.00 | 0.19 | 0.00 | 96 | 1018.0 |
| 20260502102132 | 52 | 35 | 0.0 | 0.0 | 0.00 | 0.19 | 0.00 | 96 | 1018.0 |
| 20260502101201 | 52 | 35 | 0.0 | 0.0 | 0.00 | 0.19 | 0.00 | 96 | 1017.9 |
| 20260502100209 | 52 | 35 | 0.0 | 0.0 | 0.00 | 0.19 | 0.00 | 96 | 1017.8 |
| 20260502091137 | 53 | 35 | 0.0 | 0.0 | 0.00 | 0.19 | 0.00 | 95 | 1017.5 |
| 20260502090233 | 53 | 35 | 0.0 | 0.0 | 0.00 | 0.19 | 0.00 | 95 | 1017.4 |
| 20260502070140 | 54 | 35 | 0.0 | 0.0 | 0.00 | 0.19 | 0.00 | 95 | 1017.7 |
| 20260502065159 | 54 | 35 | 0.0 | 0.0 | 0.00 | 0.19 | 0.00 | 95 | 1017.7 |
| 20260502064146 | 54 | 35 | 0.0 | 0.0 | 0.00 | 0.19 | 0.00 | 95 | 1017.6 |
| 20260502063134 | 55 | 35 | 0.0 | 1.0 | 0.00 | 0.19 | 0.00 | 95 | 1017.6 |
| 20260502062142 | 55 | 35 | 0.0 | 0.0 | 0.00 | 0.19 | 0.00 | 95 | 1017.6 |
| 20260502061129 | 55 | 35 | 0.0 | 0.0 | 0.00 | 0.19 | 0.00 | 95 | 1017.6 |
| 20260502060127 | 55 | 35 | 0.0 | 0.0 | 0.00 | 0.19 | 0.00 | 95 | 1017.5 |
| 20260502055135 | 55 | 35 | 0.0 | 0.0 | 0.00 | 0.19 | 0.00 | 95 | 1017.6 |
| 20260502054124 | 55 | 35 | 0.0 | 0.0 | 0.00 | 0.19 | 0.00 | 96 | 1017.5 |
| 20260502053132 | 55 | 35 | 0.0 | 0.0 | 0.00 | 0.19 | 0.00 | 96 | 1017.4 |
| 20260502052150 | 55 | 35 | 0.0 | 0.0 | 0.00 | 0.19 | 0.00 | 95 | 1017.3 |
| 20260502051207 | 55 | 35 | 0.0 | 0.0 | 0.00 | 0.19 | 0.00 | 95 | 1017.3 |
| 20260502050842 | 55 | 35 | 0.0 | 0.0 | 0.00 | 0.19 | 0.00 | 95 | 1017.3 |
| 20260502050146 | 56 | 35 | 0.0 | 0.0 | 0.00 | 0.19 | 0.00 | 95 | 1017.3 |
| 20260502045220 | 56 | 35 | 0.0 | 0.0 | 0.00 | 0.19 | 0.19 | 95 | 1017.3 |
| 20260502043158 | 56 | 35 | 0.0 | 0.0 | 0.00 | 0.19 | 0.19 | 95 | 1017.3 |
| 20260502042210 | 56 | 35 | 0.0 | 0.0 | 0.00 | 0.19 | 0.19 | 95 | 1017.2 |
| 20260502041148 | 56 | 35 | 0.0 | 0.0 | 0.00 | 0.19 | 0.19 | 95 | 1017.1 |
| 20260502040224 | 56 | 35 | 0.0 | 0.0 | 0.00 | 0.19 | 0.19 | 94 | 1017.2 |
| 20260502034152 | 56 | 35 | 0.0 | 0.0 | 0.00 | 0.19 | 0.19 | 94 | 1017.1 |
| 20260502033138 | 56 | 35 | 0.0 | 0.0 | 0.00 | 0.19 | 0.19 | 94 | 1017.2 |
| 20260502032211 | 56 | 35 | 0.0 | 0.0 | 0.00 | 0.19 | 0.19 | 94 | 1017.3 |
| 20260502031237 | 56 | 35 | 0.0 | 1.0 | 0.00 | 0.19 | 0.19 | 94 | 1017.2 |
| 20260502025148 | 56 | 35 | 0.0 | 0.0 | 0.00 | 0.19 | 0.19 | 92 | 1016.5 |
| 20260502024215 | 56 | 35 | 0.0 | 0.0 | 0.00 | 0.19 | 0.19 | 92 | 1016.4 |
| 20260502023145 | 56 | 35 | 0.0 | 0.0 | 0.00 | 0.19 | 0.19 | 92 | 1016.4 |
| 20260502022159 | 56 | 35 | 0.0 | 1.0 | 0.00 | 0.19 | 0.19 | 92 | 1016.3 |
| 20260502021229 | 56 | 35 | 0.0 | 3.0 | 0.00 | 0.19 | 0.19 | 93 | 1016.3 |
| 20260502020216 | 56 | 32 | 0.0 | 2.0 | 0.00 | 0.19 | 0.19 | 93 | 1016.2 |
| 20260502014148 | 57 | 62 | 0.0 | 2.0 | 0.00 | 0.19 | 0.19 | 92 | 1016.7 |
| 20260502013215 | 57 | 62 | 0.0 | 1.0 | 0.00 | 0.19 | 0.19 | 92 | 1016.6 |
| 20260502010212 | 57 | 62 | 0.0 | 1.0 | 0.00 | 0.19 | 0.19 | 90 | 1016.1 |
| 20260502005124 | 57 | 62 | 0.0 | 2.0 | 0.00 | 0.19 | 0.19 | 89 | 1015.5 |
| 20260502004204 | 57 | 59 | 1.0 | 2.0 | 0.00 | 0.19 | 0.19 | 90 | 1014.9 |
| 20260502003234 | 57 | 59 | 0.0 | 3.0 | 0.00 | 0.19 | 0.19 | 89 | 1015.4 |
| 20260502002143 | 57 | 59 | 0.0 | 2.0 | 0.00 | 0.19 | 0.19 | 89 | 1015.1 |
| 20260502001213 | 58 | 58 | 0.0 | 3.0 | 0.00 | 0.19 | 0.19 | 88 | 1015.2 |
| 20260502000207 | 58 | 76 | 1.0 | 3.0 | 0.00 | 0.19 | 0.19 | 87 | 1015.1 |